STARLINK-36600, 67623

Orbit data source: Space-Track

STARLINK-36600, 67623 is a payload satellite owned by SpaceX/Seattle (US) in LEO that was launched on Fri, 30 Jan 2026 UTC via an FALCON 9 launch vehicle from the Air Force Eastern Test Range (AFETR). Payload-class satellites include a variety of spacecraft equipped with specific instruments for various scientific and technological missions. These include communications satellites like Starlink; space stations such as the ISS; scientific satellites like the Hubble; Earth observation satellites from companies like Planet Labs, Umbra, and HawkEye 360; GPS; miniature CubeSats for education and research; and military/defense satellites.

Loading next visibility...
Identifier
67623, 2026-020G
Orbit
LEO
Country
Flag of USUS
Related business
Manufacturer
SpaceX/Seattle
Mission
Operational spacecraft
Bus & Motor
STARLINK V2MO, Unknown motor
Mass
575 kg wet, ~530 kg dry
Launch date (UTC)
2026-01-30 (2 months ago)
Launch vehicle
FALCON 9
Launch site
Air Force Eastern Test Range (AFETR)
Object type
Payload
Rocket body
Debris
Shape & HBR
Unknown shape, 17.7 m
Radar Cross Section
RCS unknown

Expand to show TLE details & history
Last TLE update: 5 hours ago

TLE from 5 hours ago
0 STARLINK-36600
1 67623U 26020G   26104.79576505  .00013406  00000-0  49559-3 0  9990
2 67623  43.0031 296.0460 0002116 257.5057 102.5558 15.27593748 11633
Epoch: 2026-04-14T19:05Z
TLE epoch observation values (Epoch: 2026-04-14T19:05:54.100Z)
Latitude
-0.00001°
Longitude
166.60369°
Altitude
483.1 km
Speed
7.625 km/s
True Right ascension
19h 44m 11s
True Declination
0° 00' 00"
Sunlit
Object was in daylight at epoch
Visualization orbit readout
Latitude
Unknown
Longitude
Unknown
Altitude
Unknown
Speed
Unknown
Apparent Right ascension
Unknown
Apparent Declination
Unknown
Sunlit
N/A
Visualization observer readout
Local Sidereal Time
07:06:29
Azimuth
Unknown
Elevation
Unknown
Doppler factor
Unknown
Orbital elements
Apogee altitude
486.405 km
Perigee altitude
483.5 km
Semi-major axis
6,863.09 km
Eccentricity
0.00021
Inclination
43.0031°
RAAN
296.046°
Arg. of periapsis
257.5057°
True anomaly
102.57947°
Mean anomaly
102.5558°
Eccentric anomaly
102.56763°
Mean motion
3.81736 °/min
Orbital period
94.31 mins
BSTAR
0.00049559
Loading maneuver chart data...
Computing Atmospheric mass density...
Loading historical data...
Loading historical data...
Loading historical data...
Loading historical data...
Loading historical data...
Loading historical data...
Loading historical data...

Documentation

Showing up to 5 results
|